EW3500 Weather Reports


Display with metric or nautical units.
time (UTC)temp
F
wind
direction
speed
MPH
gust
MPH
rain 1hr
in
rain 24hr
in
rain mn
in
humidity
%
barometer
mb
20200409052047 35 218 0.0 0.0 0.00 0.00 0.43 89 1017.2
20200409051837 35 219 0.0 0.0 0.00 0.00 0.43 89 1017.2
20200409051530 35 218 0.0 0.0 0.00 0.00 0.43 89 1017.2
20200409051400 35 219 0.0 1.0 0.00 0.00 0.43 89 1017.2
20200409051108 34 219 0.0 1.0 0.00 0.00 0.43 89 1017.1
20200409051026 34 219 0.0 1.0 0.00 0.00 0.43 89 1017.1
20200409050918 34 219 0.0 1.0 0.00 0.00 0.43 89 1017.1
20200409050836 34 219 0.0 1.0 0.00 0.00 0.43 89 1017.1
20200409050545 34 218 1.0 1.0 0.00 0.00 0.43 89 1017.1
20200409050339 34 219 0.0 2.0 0.00 0.00 0.43 89 1017.1
20200409050028 34 218 0.0 2.0 0.00 0.00 0.43 89 1017.1
20200409045838 34 219 0.0 2.0 0.00 0.00 0.43 89 1017.1
20200409045532 34 219 0.0 2.0 0.00 0.00 0.43 89 1017.9
20200409045402 34 219 0.0 1.0 0.00 0.00 0.43 88 1018.0
20200409045035 34 219 0.0 0.0 0.00 0.00 0.43 88 1017.9
20200409044845 34 219 0.0 0.0 0.00 0.00 0.43 88 1017.9
20200409044617 34 218 0.0 0.0 0.00 0.00 0.43 88 1017.9
20200409044535 34 218 0.0 0.0 0.00 0.00 0.43 88 1017.9
20200409044328 34 219 0.0 0.0 0.00 0.00 0.43 88 1017.9
20200409044031 34 219 0.0 0.0 0.00 0.00 0.43 88 1017.9
20200409043840 34 219 0.0 0.0 0.00 0.00 0.43 88 1017.8
20200409043617 34 219 0.0 0.0 0.00 0.00 0.43 88 1017.8
20200409043534 34 219 0.0 0.0 0.00 0.00 0.43 88 1017.8
20200409043426 34 219 0.0 1.0 0.00 0.00 0.43 88 1017.8
20200409043344 34 219 0.0 1.0 0.00 0.00 0.43 88 1017.8
20200409043038 34 219 0.0 2.0 0.00 0.00 0.43 88 1017.7
20200409042909 34 219 0.0 2.0 0.00 0.00 0.43 88 1017.7
20200409042827 34 219 0.0 2.0 0.00 0.00 0.43 88 1017.7
20200409042540 34 219 0.0 2.0 0.00 0.00 0.43 88 1017.6
20200409042330 34 219 0.0 2.0 0.00 0.00 0.43 88 1017.6
20200409042040 34 218 0.0 4.0 0.00 0.00 0.43 88 1017.6
20200409041854 34 218 0.0 4.0 0.00 0.00 0.43 88 1017.5
20200409041543 35 219 0.0 4.0 0.00 0.00 0.43 88 1017.5
20200409041332 35 219 1.0 4.0 0.00 0.00 0.43 88 1017.5
20200409041146 35 219 1.0 3.0 0.00 0.00 0.43 88 1017.5
20200409040829 35 218 0.0 0.0 0.00 0.00 0.43 88 1017.4
20200409040543 35 218 0.0 0.0 0.00 0.00 0.43 88 1017.4
20200409040332 35 218 0.0 0.0 0.01 0.00 0.43 88 1017.4
20200409040103 35 218 0.0 0.0 0.01 0.00 0.43 88 1017.4
20200409035836 35 218 0.0 0.0 0.01 0.00 0.43 88 1017.3
20200409035608 35 218 0.0 0.0 0.01 0.00 0.43 88 1017.3
20200409035336 35 218 0.0 1.0 0.01 0.00 0.43 88 1017.2
20200409035112 35 218 0.0 1.0 0.01 0.00 0.43 88 1017.2
20200409035031 35 218 0.0 1.0 0.01 0.00 0.43 88 1017.2
20200409034900 35 218 0.0 2.0 0.01 0.00 0.43 88 1017.2
20200409034533 35 218 0.0 2.0 0.01 0.00 0.43 88 1017.1
20200409034424 35 218 0.0 2.0 0.01 0.00 0.43 88 1017.1
20200409034342 35 218 0.0 2.0 0.01 0.00 0.43 88 1017.1
20200409034049 35 218 0.0 2.0 0.01 0.00 0.43 88 1017.0
20200409033920 35 218 0.0 2.0 0.01 0.00 0.43 88 1017.0
20200409033839 35 218 0.0 2.0 0.01 0.00 0.43 88 1017.0
20200409033549 35 218 1.0 2.0 0.01 0.00 0.43 88 1016.9
20200409033342 35 218 0.0 1.0 0.01 0.00 0.43 88 1016.9
20200409033114 35 218 0.0 0.0 0.01 0.00 0.43 88 1016.9
20200409033032 35 218 0.0 0.0 0.01 0.00 0.43 88 1016.9
20200409032924 35 218 0.0 0.0 0.01 0.00 0.43 88 1016.9
20200409032842 35 218 0.0 0.0 0.01 0.00 0.43 88 1016.9
20200409032534 35 218 0.0 1.0 0.01 0.00 0.43 88 1016.9
20200409032344 35 218 0.0 2.0 0.01 0.00 0.43 88 1016.8
20200409032036 35 218 0.0 2.0 0.01 0.00 0.43 88 1016.8
20200409031826 35 218 0.0 2.0 0.01 0.00 0.43 88 1016.8
20200409031618 35 218 0.0 3.0 0.01 0.00 0.43 88 1016.7
20200409031536 35 218 0.0 3.0 0.01 0.00 0.43 88 1016.7
20200409031330 35 218 1.0 8.0 0.01 0.00 0.43 88 1016.7
20200409031034 35 218 0.0 8.0 0.01 0.00 0.43 88 1016.6
20200409030926 35 218 0.0 8.0 0.01 0.00 0.43 88 1016.5
20200409030558 36 218 6.0 8.0 0.01 0.00 0.43 88 1016.4
20200409030327 36 141 4.0 6.0 0.00 0.00 0.42 88 1016.4
20200409030123 36 215 0.0 1.0 0.00 0.00 0.42 88 1016.3
20200409030040 36 215 0.0 1.0 0.00 0.00 0.42 88 1016.3
20200409025830 36 215 0.0 1.0 0.01 0.00 0.42 88 1016.3
20200409025539 36 215 0.0 1.0 0.01 0.00 0.42 88 1016.2
20200409025332 36 214 0.0 0.0 0.01 0.00 0.42 88 1016.2
20200409025041 36 215 0.0 1.0 0.01 0.00 0.42 87 1016.0
20200409024835 36 215 0.0 2.0 0.01 0.00 0.42 87 1016.0
20200409024544 36 215 0.0 3.0 0.01 0.00 0.42 87 1016.1
20200409024416 36 215 0.0 3.0 0.01 0.00 0.42 87 1016.0
20200409024334 36 215 0.0 3.0 0.01 0.00 0.42 87 1016.0
20200409024101 36 215 0.0 3.0 0.01 0.00 0.42 87 1016.0
20200409023830 36 214 0.0 3.0 0.01 0.00 0.42 87 1016.0
20200409023626 36 215 0.0 2.0 0.00 0.00 0.42 87 1016.0
20200409023544 36 215 0.0 2.0 0.00 0.00 0.42 87 1016.0
20200409023332 36 214 0.0 2.0 0.00 0.00 0.42 88 1016.0
20200409023125 36 215 0.0 2.0 0.00 0.00 0.42 87 1016.1
20200409023042 36 215 0.0 2.0 0.00 0.00 0.42 87 1016.1
20200409022836 36 215 0.0 2.0 0.00 0.00 0.42 87 1016.0
20200409022526 36 215 0.0 2.0 0.00 0.00 0.42 87 1016.0
20200409022336 36 215 0.0 2.0 0.00 0.00 0.42 87 1016.0
20200409022112 36 215 0.0 1.0 0.00 0.00 0.42 87 1015.9
20200409022030 36 215 0.0 1.0 0.00 0.00 0.42 87 1015.9
20200409021900 36 214 0.0 1.0 0.00 0.00 0.42 87 1015.9
20200409021615 36 214 0.0 1.0 0.00 0.00 0.42 86 1015.8
20200409021533 36 214 0.0 1.0 0.00 0.00 0.42 86 1015.8
20200409021343 36 214 0.0 1.0 0.00 0.00 0.42 86 1015.8
20200409021048 36 214 0.0 3.0 0.00 0.00 0.42 86 1015.7
20200409020923 36 215 0.0 3.0 0.00 0.00 0.42 86 1015.7
20200409020841 36 215 0.0 3.0 0.00 0.00 0.42 86 1015.7
20200409020530 36 214 0.0 7.0 0.00 0.00 0.42 86 1015.7
20200409020339 36 214 1.0 7.0 0.00 0.00 0.42 86 1015.6
20200409020034 36 214 1.0 7.0 0.00 0.00 0.42 85 1015.7
20200409015843 36 215 1.0 9.0 0.00 0.00 0.41 85 1015.6
20200409015536 36 214 3.0 9.0 0.00 0.00 0.41 85 1015.6
20200409015326 37 215 1.0 12.0 0.00 0.00 0.41 85 1015.6
20200409015040 37 215 4.0 12.0 0.00 0.00 0.41 85 1015.5
20200409014829 37 221 5.0 12.0 0.00 0.00 0.41 85 1015.5
20200409014559 37 207 6.0 12.0 0.00 0.00 0.41 85 1015.5
20200409014353 38 211 3.0 11.0 0.00 0.00 0.41 85 1015.5
20200409014035 38 183 6.0 11.0 0.00 0.00 0.41 84 1015.4
20200409013845 38 188 3.0 9.0 0.00 0.00 0.41 84 1015.4
20200409013539 38 213 5.0 12.0 0.00 0.71 0.41 84 1015.3
20200409013329 39 222 4.0 12.0 0.00 0.71 0.41 84 1015.3
20200409013039 39 219 1.0 6.0 0.00 0.71 0.41 84 1015.1
20200409012852 39 220 0.0 8.0 0.00 0.71 0.41 83 1015.0
20200409012601 39 220 3.0 8.0 0.00 0.00 0.41 83 1014.9
20200409012416 39 220 2.0 8.0 0.00 0.00 0.41 83 1014.8
20200409012333 39 220 2.0 8.0 0.00 0.00 0.41 83 1014.8
20200409012043 39 219 4.0 8.0 0.00 0.00 0.41 83 1014.7
20200409011831 39 219 4.0 7.0 0.00 0.00 0.41 83 1014.7
20200409011545 39 219 1.0 7.0 0.00 0.00 0.41 83 1014.7
20200409011335 39 219 3.0 7.0 0.00 0.00 0.41 83 1014.7
20200409011124 40 219 1.0 7.0 0.00 0.00 0.41 83 1014.7
20200409011042 40 219 1.0 7.0 0.00 0.00 0.41 83 1014.7
20200409010853 40 219 2.0 6.0 0.00 0.00 0.41 83 1014.6
20200409010541 40 211 3.0 6.0 0.00 0.00 0.41 84 1014.6
20200409010355 40 210 1.0 7.0 0.00 0.00 0.41 84 1014.5
20200409010105 40 267 3.0 7.0 0.00 0.00 0.41 84 1014.4
20200409005834 40 267 1.0 7.0 0.00 0.00 0.41 84 1014.5
20200409005610 40 267 4.0 7.0 0.00 0.00 0.41 84 1014.4
20200409005528 40 267 4.0 7.0 0.00 0.00 0.41 84 1014.4
20200409005338 40 267 3.0 7.0 0.00 0.00 0.41 85 1014.3
20200409005052 40 211 3.0 9.0 0.00 0.00 0.41 85 1014.3
20200409004841 40 257 2.0 9.0 0.00 0.00 0.41 85 1014.3
20200409004530 40 257 3.0 9.0 0.00 0.00 0.41 85 1014.2
20200409004404 40 257 2.0 9.0 0.00 0.00 0.41 86 1014.2
20200409004027 40 268 2.0 10.0 0.00 0.00 0.41 86 1014.1
20200409003837 40 270 1.0 10.0 0.00 0.00 0.41 85 1014.2
20200409003550 40 183 1.0 10.0 0.00 0.00 0.41 85 1014.2
20200409003400 40 184 5.0 10.0 0.00 0.00 0.41 85 1014.2
20200409003033 40 255 1.0 7.0 0.00 0.00 0.41 85 1014.2
20200409002843 40 255 1.0 7.0 0.01 0.00 0.41 86 1014.2
20200409002557 40 225 1.0 7.0 0.02 0.00 0.41 86 1014.2
20200409002347 40 225 0.0 7.0 0.02 0.00 0.41 85 1014.2
20200409002117 40 260 4.0 7.0 0.02 0.00 0.41 86 1014.2
20200409001850 40 225 3.0 10.0 0.03 0.00 0.41 86 1014.2
20200409001537 40 225 4.0 10.0 0.03 0.00 0.41 87 1014.1
20200409001348 40 225 2.0 10.0 0.03 0.00 0.41 87 1014.2
20200409001035 40 225 5.0 10.0 0.03 0.00 0.41 86 1014.2
20200409000846 40 193 4.0 10.0 0.03 0.00 0.41 86 1014.2
20200409000621 40 220 1.0 9.0 0.03 0.00 0.41 86 1014.1
20200409000539 40 220 1.0 9.0 0.03 0.00 0.41 86 1014.1
20200409000329 40 221 5.0 9.0 0.03 0.00 0.41 86 1014.1
20200409000121 40 207 3.0 10.0 0.03 0.00 0.41 86 1014.1
20200409000040 40 207 3.0 10.0 0.03 0.00 0.41 86 1014.1
20200408235914 39 208 2.0 10.0 0.03 0.00 0.41 86 1014.1
20200408235833 39 208 2.0 10.0 0.03 0.00 0.41 86 1014.1
20200408235602 39 207 2.0 10.0 0.03 0.00 0.41 85 1014.1
20200408235331 39 162 4.0 10.0 0.03 0.00 0.41 85 1014.0
20200408235127 39 215 1.0 3.0 0.03 0.00 0.41 85 1014.1
20200408234917 39 268 1.0 2.0 0.03 0.00 0.41 85 1014.0
20200408234835 39 268 1.0 2.0 0.03 0.00 0.41 85 1014.0
20200408234528 39 268 0.0 6.0 0.03 0.00 0.41 84 1014.0
20200408234337 39 268 0.0 6.0 0.03 0.00 0.41 84 1014.0
20200408234040 39 268 0.0 6.0 0.03 0.00 0.41 83 1014.1
20200408233854 39 268 2.0 6.0 0.03 0.00 0.41 83 1014.1
20200408233604 39 223 3.0 5.0 0.03 0.00 0.41 82 1014.1
20200408233337 39 222 1.0 7.0 0.03 0.00 0.41 81 1014.1
20200408233107 40 223 2.0 7.0 0.03 0.00 0.41 80 1014.2
20200408232835 40 223 1.0 7.0 0.02 0.00 0.40 80 1014.2
20200408232528 40 223 4.0 7.0 0.01 0.00 0.39 79 1014.3
20200408232338 41 144 3.0 9.0 0.01 0.00 0.39 79 1014.2
20200408232031 41 226 4.0 11.0 0.01 0.00 0.39 79 1014.2
20200408231923 41 228 2.0 11.0 0.00 0.00 0.38 79 1014.2
20200408231551 42 192 5.0 11.0 0.00 0.00 0.38 79 1014.1
20200408231405 42 226 5.0 11.0 0.00 0.00 0.38 80 1014.1
20200408231028 42 227 4.0 9.0 0.00 0.00 0.38 81 1014.0
20200408230859 42 234 2.0 9.0 0.00 0.00 0.38 81 1014.1
20200408230532 42 205 2.0 5.0 0.00 0.00 0.38 78 1014.2
20200408230342 42 184 1.0 6.0 0.00 0.00 0.38 77 1014.2
20200408230035 43 255 3.0 8.0 0.00 0.00 0.38 77 1014.2
20200408225845 43 255 2.0 8.0 0.00 0.00 0.38 76 1014.2
20200408225617 43 255 3.0 8.0 0.00 0.00 0.38 76 1014.1
20200408225535 43 255 3.0 8.0 0.00 0.00 0.38 76 1014.1
20200408225349 43 218 4.0 11.0 0.00 0.00 0.38 75 1014.1
20200408225059 43 261 3.0 11.0 0.00 0.00 0.38 73 1014.1
20200408224853 43 249 5.0 11.0 0.00 0.00 0.38 74 1014.1
20200408224542 43 205 6.0 11.0 0.00 0.00 0.38 76 1014.1
20200408224331 43 251 4.0 9.0 0.00 0.00 0.38 76 1014.1
20200408224100 43 233 3.0 6.0 0.00 0.00 0.38 75 1014.2
20200408223912 43 233 2.0 6.0 0.00 0.00 0.38 76 1014.2
20200408223829 43 233 2.0 6.0 0.00 0.00 0.38 76 1014.2
20200408223543 43 269 1.0 7.0 0.00 0.00 0.38 76 1014.3
20200408223354 43 270 3.0 7.0 0.00 0.00 0.38 76 1014.3
20200408223041 43 186 3.0 7.0 0.00 0.00 0.38 77 1014.3
20200408222835 43 173 4.0 7.0 0.00 0.00 0.38 78 1014.4
20200408222545 43 267 1.0 10.0 0.00 0.00 0.38 80 1014.3
20200408222335 43 240 1.0 10.0 0.00 0.00 0.38 79 1014.3
20200408222111 43 256 2.0 10.0 0.00 0.00 0.38 80 1014.2
20200408222029 43 256 2.0 10.0 0.00 0.00 0.38 80 1014.2
20200408221859 43 260 3.0 11.0 0.00 0.00 0.38 80 1014.3
20200408221532 42 268 5.0 11.0 0.00 0.00 0.38 81 1014.3
20200408221341 42 215 5.0 11.0 0.00 0.00 0.38 81 1014.3
20200408221026 42 227 5.0 11.0 0.00 0.00 0.38 82 1014.4
20200408220840 42 269 4.0 13.0 0.00 0.00 0.38 82 1014.3
20200408220528 42 259 5.0 14.0 0.00 0.00 0.38 82 1014.3
20200408220358 42 198 1.0 14.0 0.00 0.00 0.38 82 1014.3
20200408220112 42 150 6.0 14.0 0.00 0.00 0.38 82 1014.3
20200408215901 42 211 5.0 14.0 0.00 0.00 0.38 82 1014.3
20200408215533 42 196 5.0 11.0 0.00 0.00 0.38 83 1014.3
20200408215404 42 223 5.0 12.0 0.00 0.00 0.38 84 1014.4
20200408215037 41 230 4.0 15.0 0.00 0.00 0.38 82 1014.3
20200408214909 41 202 3.0 15.0 0.00 0.00 0.38 82 1014.4
20200408214558 42 207 6.0 15.0 0.00 0.00 0.38 82 1014.4
20200408214330 42 224 7.0 15.0 0.00 0.00 0.38 84 1014.3
20200408214033 41 207 5.0 10.0 0.00 0.00 0.38 84 1014.3
20200408213902 41 186 2.0 10.0 0.00 0.00 0.38 84 1014.3
20200408213617 41 229 6.0 10.0 0.00 0.00 0.38 84 1014.2
20200408213407 41 231 1.0 6.0 0.00 0.00 0.38 85 1014.3
20200408213326 41 231 1.0 6.0 0.00 0.00 0.38 85 1014.3
20200408213039 41 192 3.0 6.0 0.00 0.00 0.38 85 1014.3
20200408212829 40 217 1.0 7.0 0.00 0.00 0.38 86 1014.2
20200408212558 40 254 0.0 7.0 0.00 0.00 0.38 86 1014.3
20200408212352 40 254 0.0 7.0 0.00 0.00 0.38 86 1014.2
20200408212102 40 254 3.0 7.0 0.00 0.00 0.38 85 1014.2
20200408211831 40 277 1.0 6.0 0.00 0.00 0.38 85 1014.2
20200408211544 40 246 3.0 6.0 0.00 0.00 0.38 85 1014.3
20200408211417 40 225 1.0 5.0 0.00 0.00 0.38 86 1014.2
20200408211334 40 225 1.0 5.0 0.00 0.00 0.38 86 1014.2
20200408211124 40 225 3.0 9.0 0.00 0.00 0.38 86 1014.4
20200408210832 40 225 2.0 9.0 0.00 0.00 0.38 86 1014.4
20200408210526 40 225 3.0 9.0 0.00 0.00 0.38 86 1014.3
20200408210335 40 225 5.0 9.0 0.00 0.00 0.38 86 1014.4
20200408210105 40 137 4.0 13.0 0.00 0.00 0.38 87 1014.3
20200408205838 40 180 2.0 13.0 0.00 0.00 0.38 87 1014.2
20200408205549 40 229 1.0 14.0 0.00 0.00 0.38 86 1014.3
20200408205336 40 207 3.0 14.0 0.00 0.00 0.38 87 1014.3
20200408205030 39 148 3.0 14.0 0.00 0.00 0.38 85 1015.1
20200408204840 39 244 6.0 14.0 0.01 0.00 0.38 85 1015.0
20200408204553 39 207 2.0 7.0 0.01 0.00 0.38 86 1015.0
20200408204343 39 242 3.0 7.0 0.01 0.00 0.38 86 1015.0
20200408204106 39 209 3.0 7.0 0.01 0.00 0.38 87 1014.9
20200408203838 39 208 3.0 7.0 0.01 0.00 0.38 87 1015.0
20200408203548 39 210 3.0 7.0 0.02 0.00 0.38 87 1014.9
20200408203357 39 215 3.0 7.0 0.02 0.00 0.38 88 1014.9
20200408203030 39 264 2.0 7.0 0.02 0.00 0.38 88 1014.8
20200408202901 39 265 3.0 7.0 0.02 0.00 0.38 88 1014.8
20200408202615 39 210 2.0 5.0 0.02 0.00 0.38 88 1014.8
20200408202425 40 290 0.0 5.0 0.02 0.00 0.38 88 1014.8
20200408202343 40 290 0.0 5.0 0.02 0.00 0.38 88 1014.8
20200408202052 40 290 1.0 7.0 0.03 0.00 0.38 88 1014.7
20200408201926 40 290 1.0 7.0 0.03 0.00 0.38 88 1014.7
20200408201615 40 212 2.0 8.0 0.03 0.00 0.38 88 1014.7
20200408201533 40 212 2.0 8.0 0.03 0.00 0.38 88 1014.7
20200408201408 40 221 3.0 8.0 0.03 0.00 0.38 88 1014.7
20200408201326 40 221 3.0 8.0 0.03 0.00 0.38 88 1014.7
20200408201049 40 222 2.0 11.0 0.04 0.00 0.38 89 1014.7
20200408200857 40 222 2.0 11.0 0.04 0.00 0.38 89 1014.7
20200408200529 40 222 3.0 11.0 0.05 0.00 0.38 88 1014.7
20200408200358 40 221 4.0 11.0 0.05 0.00 0.38 88 1014.8
20200408200032 40 180 3.0 11.0 0.05 0.00 0.38 89 1014.7
20200408195902 40 171 3.0 11.0 0.06 0.00 0.38 89 1014.8
20200408195530 40 234 5.0 11.0 0.06 0.00 0.38 89 1014.6
20200408195344 40 182 3.0 12.0 0.06 0.00 0.38 89 1014.6
20200408195036 40 202 6.0 14.0 0.06 0.00 0.38 89 1014.6
20200408194904 40 189 3.0 14.0 0.05 0.00 0.37 89 1014.5
20200408194558 39 178 4.0 14.0 0.05 0.00 0.37 89 1014.5
20200408194348 39 211 6.0 14.0 0.05 0.00 0.37 89 1014.5
20200408194118 39 210 5.0 13.0 0.06 0.00 0.37 89 1014.5
20200408194035 39 210 5.0 13.0 0.06 0.00 0.37 89 1014.5
20200408193845 39 214 3.0 13.0 0.06 0.00 0.37 89 1014.5
20200408193535 39 175 3.0 13.0 0.07 0.00 0.37 88 1014.4
20200408193328 39 207 7.0 13.0 0.06 0.00 0.36 88 1014.5
20200408193100 38 133 4.0 11.0 0.06 0.00 0.36 88 1014.4
20200408192828 38 222 3.0 11.0 0.06 0.00 0.36 88 1014.4
20200408192603 38 230 5.0 11.0 0.07 0.00 0.36 88 1014.3
20200408192331 38 229 5.0 11.0 0.07 0.00 0.36 88 1014.4
20200408192046 38 197 1.0 5.0 0.06 0.00 0.35 87 1014.4
20200408191835 38 196 2.0 9.0 0.07 0.00 0.35 87 1014.3
20200408191529 38 196 1.0 10.0 0.07 0.00 0.35 87 1014.3
20200408191339 38 196 3.0 10.0 0.07 0.00 0.35 87 1014.3
20200408191041 39 219 4.0 10.0 0.07 0.00 0.34 87 1014.3
20200408190915 39 222 5.0 10.0 0.07 0.00 0.34 87 1014.3
20200408190833 39 222 5.0 10.0 0.07 0.00 0.34 87 1014.3
20200408190604 39 214 3.0 10.0 0.07 0.00 0.33 88 1014.2
20200408190333 39 202 2.0 7.0 0.07 0.00 0.33 88 1014.2
20200408190026 39 229 2.0 7.0 0.08 0.00 0.33 89 1014.2
20200408185857 39 217 3.0 7.0 0.07 0.00 0.32 89 1014.1
20200408185612 39 203 2.0 7.0 0.08 0.00 0.32 89 1014.1
20200408185401 39 196 1.0 7.0 0.08 0.00 0.32 88 1014.1
20200408185051 38 196 1.0 7.0 0.09 0.00 0.32 88 1014.1
20200408184844 38 196 4.0 7.0 0.09 0.00 0.32 88 1014.2
20200408184554 38 219 1.0 7.0 0.10 0.00 0.32 88 1014.2
20200408184342 38 219 1.0 7.0 0.10 0.00 0.32 88 1014.2
20200408184028 38 222 3.0 7.0 0.09 0.00 0.31 88 1014.2
20200408183837 38 217 4.0 7.0 0.10 0.00 0.31 88 1014.3
20200408183613 38 148 3.0 6.0 0.10 0.00 0.30 88 1014.2
20200408183531 38 148 3.0 6.0 0.10 0.00 0.30 88 1014.2
20200408183421 38 234 2.0 5.0 0.10 0.00 0.30 88 1014.2
20200408183029 38 234 2.0 6.0 0.11 0.00 0.30 88 1014.1
20200408182904 38 234 1.0 6.0 0.11 0.00 0.30 88 1014.1
20200408182533 38 234 1.0 6.0 0.11 0.00 0.29 88 1014.1
20200408182327 38 234 2.0 8.0 0.12 0.00 0.29 88 1014.1
20200408182036 38 234 2.0 8.0 0.12 0.00 0.29 88 1014.1
20200408181845 38 233 3.0 8.0 0.12 0.00 0.28 88 1014.1
20200408181559 38 204 4.0 8.0 0.12 0.00 0.28 88 1014.0
20200408181345 38 219 2.0 7.0 0.13 0.00 0.28 87 1013.9
20200408181053 38 218 2.0 7.0 0.13 0.00 0.27 87 1013.8
20200408180842 38 217 4.0 7.0 0.13 0.00 0.27 87 1013.8
20200408180614 38 230 2.0 6.0 0.13 0.00 0.26 88 1013.8
20200408180532 38 230 2.0 6.0 0.13 0.00 0.26 88 1013.8
20200408180356 38 186 3.0 6.0 0.14 0.00 0.26 88 1013.8
20200408180037 38 207 1.0 6.0 0.13 0.00 0.25 88 1013.8
20200408175927 38 208 1.0 6.0 0.14 0.00 0.25 88 1013.7
20200408175845 38 208 1.0 6.0 0.14 0.00 0.25 88 1013.7
20200408175620 38 198 3.0 6.0 0.14 0.00 0.24 88 1013.7
20200408175538 38 198 3.0 6.0 0.14 0.00 0.24 88 1013.7
20200408175327 38 236 2.0 7.0 0.14 0.00 0.24 88 1013.6
20200408175041 38 238 3.0 7.0 0.14 0.00 0.23 88 1013.6
20200408174852 38 259 1.0 11.0 0.14 0.00 0.23 88 1013.6
20200408174540 38 259 2.0 11.0 0.14 0.00 0.22 88 1013.5
20200408174354 39 242 3.0 11.0 0.14 0.00 0.22 88 1013.5
20200408174036 39 223 5.0 11.0 0.15 0.00 0.22 88 1013.3
20200408173847 39 267 3.0 10.0 0.14 0.00 0.21 89 1013.3
20200408173539 39 200 4.0 10.0 0.14 0.00 0.20 89 1013.2
20200408173329 39 254 3.0 10.0 0.14 0.00 0.20 89 1013.2
20200408173042 39 248 3.0 10.0 0.14 0.00 0.19 89 1013.1
20200408172832 38 259 6.0 10.0 0.14 0.00 0.19 89 1013.0
20200408172525 38 234 3.0 7.0 0.14 0.00 0.18 89 1012.9
20200408172335 38 232 3.0 7.0 0.13 0.00 0.17 89 1012.7
20200408172026 38 257 3.0 13.0 0.13 0.00 0.17 88 1012.6
20200408171901 38 246 3.0 13.0 0.12 0.00 0.16 88 1012.4
20200408171550 38 227 4.0 13.0 0.12 0.00 0.16 89 1012.4
20200408171339 38 228 6.0 13.0 0.11 0.00 0.15 89 1012.4
20200408171027 38 219 4.0 13.0 0.11 0.00 0.14 89 1012.5
20200408170857 38 196 7.0 13.0 0.11 0.00 0.14 89 1012.4
20200408170612 38 232 5.0 10.0 0.10 0.00 0.13 89 1012.6
20200408170530 38 232 5.0 10.0 0.10 0.00 0.13 89 1012.6
20200408170339 38 196 3.0 10.0 0.09 0.00 0.12 89 1012.8
20200408170028 38 219 5.0 10.0 0.09 0.00 0.12 89 1012.8
20200408165842 38 242 1.0 10.0 0.08 0.00 0.11 89 1012.7
20200408165532 38 202 5.0 10.0 0.07 0.00 0.10 89 1012.7
20200408165342 38 207 5.0 10.0 0.07 0.00 0.10 90 1012.6
20200408165036 37 229 3.0 6.0 0.06 0.00 0.09 89 1012.5
20200408164846 37 237 4.0 6.0 0.06 0.00 0.09 89 1012.6
20200408164621 37 191 3.0 9.0 0.06 0.00 0.09 90 1012.8
20200408164329 37 201 2.0 9.0 0.05 0.00 0.08 90 1012.8
20200408164032 37 201 3.0 11.0 0.04 0.00 0.07 90 1012.8
20200408163826 37 224 3.0 11.0 0.04 0.00 0.07 90 1012.7
20200408163536 37 222 4.0 11.0 0.03 0.00 0.06 90 1012.5
20200408163329 37 211 1.0 5.0 0.03 0.00 0.06 91 1012.5
20200408163039 37 210 2.0 5.0 0.03 0.00 0.05 91 1012.6
20200408162828 37 211 3.0 5.0 0.03 0.00 0.05 90 1012.7
20200408162541 36 254 3.0 5.0 0.02 0.00 0.04 91 1012.7
20200408162352 36 259 1.0 5.0 0.02 0.00 0.04 91 1012.5
20200408162044 36 259 0.0 5.0 0.02 0.00 0.04 90 1012.2
20200408161916 36 259 2.0 5.0 0.02 0.00 0.04 90 1012.1
20200408161834 36 259 2.0 5.0 0.02 0.00 0.04 90 1012.1
20200408161542 36 232 2.0 5.0 0.02 0.00 0.04 91 1012.1
20200408161335 36 223 2.0 5.0 0.02 0.00 0.04 91 1012.3
20200408161037 36 221 1.0 7.0 0.01 0.00 0.03 91 1012.5
20200408160827 36 242 3.0 7.0 0.01 0.00 0.03 91 1012.3
20200408160601 36 221 2.0 7.0 0.01 0.00 0.03 91 1012.5
20200408160413 36 222 3.0 7.0 0.01 0.00 0.03 91 1012.9
20200408160331 36 222 3.0 7.0 0.01 0.00 0.03 91 1012.9
20200408160106 35 210 0.0 3.0 0.01 0.00 0.03 91 1013.0
20200408155855 35 210 1.0 4.0 0.01 0.00 0.03 91 1012.7
20200408155605 35 199 0.0 4.0 0.01 0.00 0.03 91 1012.7
20200408155337 35 196 0.0 5.0 0.01 0.00 0.03 91 1012.4
20200408155048 35 196 1.0 5.0 0.01 0.00 0.03 91 1012.7
20200408154857 35 184 0.0 5.0 0.01 0.00 0.03 91 1012.9
20200408154551 34 245 2.0 5.0 0.01 0.00 0.03 91 1012.7
20200408154402 34 245 2.0 3.0 0.01 0.00 0.03 91 1012.6
20200408154027 34 245 0.0 3.0 0.01 0.00 0.03 91 1012.6
20200408153856 34 245 1.0 3.0 0.01 0.00 0.03 91 1012.7
20200408153529 34 276 0.0 3.0 0.01 0.00 0.03 90 1012.2
20200408153338 34 276 2.0 3.0 0.01 0.00 0.03 90 1012.0
20200408153028 34 276 0.0 0.0 0.00 0.00 0.02 90 1012.3
20200408152903 34 276 0.0 0.0 0.00 0.00 0.02 91 1012.5
20200408152531 34 276 0.0 0.0 0.00 0.00 0.02 91 1012.6
20200408152423 35 276 0.0 0.0 0.01 0.00 0.02 90 1012.6
20200408152341 35 276 0.0 0.0 0.01 0.00 0.02 90 1012.6
20200408152055 35 276 0.0 0.0 0.01 0.00 0.02 91 1012.8
20200408151844 35 276 0.0 0.0 0.01 0.00 0.02 91 1012.9
20200408151538 35 276 0.0 0.0 0.01 0.00 0.02 91 1013.0
20200408151328 35 276 0.0 0.0 0.01 0.00 0.02 91 1012.9
20200408151032 34 276 0.0 0.0 0.01 0.00 0.02 91 1012.7
20200408150845 34 276 0.0 0.0 0.01 0.00 0.02 91 1012.6
20200408150534 34 276 0.0 0.0 0.01 0.00 0.02 91 1012.4
20200408150405 34 276 0.0 0.0 0.01 0.00 0.02 91 1012.5
20200408150118 34 276 0.0 0.0 0.01 0.00 0.02 91 1012.5
20200408145847 34 276 0.0 0.0 0.01 0.00 0.02 91 1012.5
20200408145542 34 277 0.0 0.0 0.01 0.00 0.02 91 1012.5
20200408145331 34 277 0.0 0.0 0.01 0.00 0.02 91 1012.4
20200408145040 34 276 0.0 0.0 0.01 0.00 0.02 91 1012.4
20200408144834 33 276 0.0 0.0 0.01 0.00 0.02 91 1012.3
20200408144605 33 277 0.0 0.0 0.01 0.00 0.02 91 1012.1
20200408144337 33 277 0.0 0.0 0.01 0.00 0.02 91 1012.2
20200408144040 33 277 0.0 0.0 0.01 0.00 0.02 91 1012.2
20200408143913 33 277 0.0 0.0 0.01 0.00 0.02 90 1012.2
20200408143830 33 277 0.0 0.0 0.01 0.00 0.02 90 1012.2
20200408143626 33 277 0.0 0.0 0.01 0.00 0.02 90 1012.5
20200408143603 33 277 0.0 0.0 0.01 0.00 0.02 90 1012.5
20200408143416 33 277 0.0 0.0 0.01 0.00 0.02 90 1012.5
20200408143338 33 277 0.0 0.0 0.01 0.00 0.02 90 1012.5
20200408143057 33 277 0.0 0.0 0.01 0.00 0.02 90 1012.5
20200408142836 33 277 0.0 0.0 0.01 0.00 0.02 90 1012.5
20200408142525 33 276 0.0 0.0 0.01 0.00 0.02 90 1012.6
20200408142339 33 277 0.0 0.0 0.00 0.00 0.01 90 1012.8
20200408142028 33 276 0.0 0.0 0.00 0.00 0.01 90 1012.9
20200408141920 33 277 0.0 0.0 0.00 0.00 0.01 90 1012.9
20200408141838 33 277 0.0 0.0 0.00 0.00 0.01 90 1012.9
20200408141553 33 276 0.0 0.0 0.00 0.00 0.01 90 1012.9
20200408141341 33 277 0.0 0.0 0.00 0.00 0.01 90 1013.0
20200408141029 33 277 0.0 0.0 0.00 0.00 0.01 90 1013.1
20200408140920 33 276 0.0 0.0 0.00 0.00 0.01 90 1013.1
20200408140528 33 277 0.0 0.0 0.00 0.00 0.01 90 1013.1
20200408140343 33 276 0.0 0.0 0.00 0.00 0.01 90 1013.2
20200408140032 33 277 0.0 0.0 0.00 0.00 0.01 90 1013.1
20200408135826 33 276 0.0 0.0 0.00 0.00 0.01 90 1013.2
20200408135536 33 277 0.0 0.0 0.01 0.00 0.01 90 1013.3
20200408135326 33 276 0.0 0.0 0.01 0.00 0.01 90 1013.3
20200408135122 33 277 0.0 0.0 0.01 0.00 0.01 90 1013.0
20200408135040 33 277 0.0 0.0 0.01 0.00 0.01 90 1013.0
20200408134829 33 277 0.0 0.0 0.01 0.00 0.01 90 1012.9
20200408134604 33 277 0.0 0.0 0.01 0.00 0.01 90 1012.7
20200408134333 33 277 0.0 0.0 0.01 0.00 0.01 90 1012.6
20200408134118 33 277 0.0 0.0 0.01 0.00 0.01 90 1012.4
20200408134036 33 277 0.0 0.0 0.01 0.00 0.01 90 1012.4
20200408133829 33 277 0.0 0.0 0.01 0.00 0.01 90 1012.4
20200408133600 33 277 0.0 0.0 0.01 0.00 0.01 90 1012.4
20200408133349 33 276 0.0 0.0 0.01 0.00 0.01 90 1012.3
20200408133042 33 277 0.0 0.0 0.01 0.00 0.01 90 1012.3
20200408132832 33 276 0.0 0.0 0.01 0.00 0.01 90 1012.3
20200408132547 33 277 0.0 0.0 0.01 0.00 0.01 90 1012.2
20200408132357 33 276 0.0 0.0 0.01 0.00 0.01 90 1012.2
20200408132025 33 277 0.0 0.0 0.01 0.00 0.01 90 1012.1
20200408131900 33 277 0.0 0.0 0.01 0.00 0.01 90 1012.1
20200408131528 33 277 0.0 0.0 0.01 0.00 0.01 90 1012.1
20200408131420 33 277 0.0 0.0 0.01 0.00 0.01 90 1012.0
20200408131338 33 277 0.0 0.0 0.01 0.00 0.01 90 1012.0
20200408131108 33 276 0.0 0.0 0.01 0.00 0.01 90 1011.8
20200408130856 33 277 0.0 0.0 0.01 0.00 0.01 90 1011.8
20200408130529 33 276 0.0 0.0 0.01 0.00 0.01 90 1011.9
20200408130340 33 277 0.0 0.0 0.01 0.00 0.01 90 1011.9
20200408130034 33 276 0.0 0.0 0.01 0.00 0.01 90 1011.9
20200408125842 33 277 0.0 0.0 0.01 0.00 0.01 90 1011.8
20200408125553 33 277 0.0 0.0 0.00 0.00 0.00 89 1011.8
20200408125345 33 277 0.0 0.0 0.00 0.00 0.00 89 1011.8
20200408125117 33 277 0.0 0.0 0.00 0.00 0.00 89 1011.8
20200408125034 33 277 0.0 0.0 0.00 0.00 0.00 89 1011.8
20200408124926 33 276 0.0 0.0 0.00 0.00 0.00 89 1011.9
20200408124843 33 276 0.0 0.0 0.00 0.00 0.00 89 1011.9
20200408124558 33 277 0.0 0.0 0.01 0.00 0.00 89 1012.0
20200408124348 33 276 0.0 0.0 0.01 0.00 0.00 89 1011.9
20200408124055 33 277 0.0 0.0 0.01 0.00 0.00 89 1011.8
20200408123842 33 277 0.0 0.0 0.01 0.00 0.00 89 1011.7
20200408123614 34 276 0.0 0.0 0.01 0.00 0.00 89 1011.6
20200408123532 34 276 0.0 0.0 0.01 0.00 0.00 89 1011.6
20200408123408 34 277 0.0 0.0 0.01 0.00 0.00 89 1011.6
20200408123325 34 277 0.0 0.0 0.01 0.00 0.00 89 1011.6
20200408123056 34 276 0.0 0.0 0.02 0.00 0.00 89 1011.5
20200408122845 34 276 0.0 0.0 0.02 0.00 0.00 89 1011.5
20200408122620 34 277 0.0 0.0 0.02 0.00 0.00 89 1011.7
20200408122538 34 277 0.0 0.0 0.02 0.00 0.00 89 1011.7
20200408122410 34 276 0.0 0.0 0.02 0.00 0.00 89 1011.9
20200408122328 34 276 0.0 0.0 0.02 0.00 0.00 89 1011.9
20200408122042 34 276 0.0 0.0 0.02 0.00 0.80 89 1011.9
20200408121832 34 277 0.0 0.0 0.02 0.00 0.80 89 1011.9
20200408121602 34 277 0.0 0.0 0.02 0.00 0.80 89 1011.8
20200408121334 34 277 0.0 0.0 0.03 0.00 0.80 89 1011.8
20200408121119 34 277 0.0 0.0 0.03 0.00 0.80 89 1011.9
20200408121037 34 277 0.0 0.0 0.03 0.00 0.80 89 1011.9
20200408120851 34 277 0.0 2.0 0.03 0.00 0.80 89 1011.9
20200408120620 34 276 0.0 2.0 0.04 0.00 0.80 89 1012.1
20200408120327 34 276 0.0 2.0 0.04 0.00 0.80 89 1012.0
20200408120103 35 276 0.0 2.0 0.04 0.00 0.80 89 1012.1
20200408115831 35 276 0.0 0.0 0.05 0.00 0.80 89 1012.0
20200408115543 35 277 0.0 0.0 0.05 0.00 0.80 89 1012.0
20200408115333 35 276 0.0 1.0 0.06 0.00 0.80 89 1012.0
20200408115042 35 277 0.0 1.0 0.06 0.00 0.80 89 1012.0
20200408114836 35 276 0.0 1.0 0.07 0.00 0.80 89 1011.9
20200408114526 35 277 0.0 1.0 0.07 0.00 0.79 89 1012.0
20200408114336 35 276 0.0 0.0 0.07 0.00 0.79 89 1011.9
20200408114042 35 277 0.0 0.0 0.08 0.00 0.79 89 1012.0
20200408113831 35 276 0.0 0.0 0.09 0.00 0.79 89 1012.1
20200408113606 35 276 0.0 1.0 0.09 0.00 0.79 89 1012.1
20200408113334 35 276 0.0 1.0 0.10 0.00 0.79 89 1012.1
20200408113105 36 277 0.0 1.0 0.09 0.00 0.78 89 1011.9
20200408112838 36 277 0.0 5.0 0.10 0.00 0.78 89 1011.9
20200408112527 36 277 0.0 5.0 0.11 0.00 0.78 89 1012.0
20200408112419 36 277 0.0 5.0 0.11 0.00 0.78 89 1012.0
20200408112337 36 277 0.0 5.0 0.11 0.00 0.78 89 1012.0
20200408112031 36 277 2.0 5.0 0.12 0.00 0.78 89 1011.9
20200408111841 36 276 2.0 5.0 0.12 0.00 0.78 89 1011.8
20200408111555 36 277 0.0 3.0 0.13 0.00 0.78 89 1011.5
20200408111344 36 277 1.0 3.0 0.12 0.00 0.77 89 1011.4
20200408111113 36 277 1.0 3.0 0.13 0.00 0.77 89 1011.5
20200408110841 36 277 0.0 3.0 0.13 0.00 0.77 89 1011.5
20200408110530 36 277 0.0 3.0 0.13 0.00 0.76 89 1011.5
20200408110405 37 277 2.0 3.0 0.13 0.00 0.76 89 1011.5
20200408105903 37 277 0.0 2.0 0.12 0.00 0.75 89 1011.6
20200408105556 37 277 0.0 4.0 0.12 0.00 0.75 89 1011.7
20200408105406 37 277 0.0 4.0 0.12 0.00 0.74 89 1011.6
20200408105121 37 277 0.0 4.0 0.12 0.00 0.74 89 1011.7
20200408104829 37 277 1.0 4.0 0.11 0.00 0.73 89 1011.8
20200408104539 37 277 0.0 3.0 0.10 0.00 0.72 89 1011.9
20200408104331 38 277 2.0 3.0 0.10 0.00 0.72 89 1011.9
20200408104035 38 277 1.0 4.0 0.09 0.00 0.71 90 1012.0
20200408103906 38 277 1.0 4.0 0.09 0.00 0.71 90 1012.0
20200408103539 38 277 1.0 4.0 0.08 0.00 0.70 90 1012.2
20200408103410 38 277 1.0 4.0 0.07 0.00 0.69 90 1012.1
20200408103328 38 277 1.0 4.0 0.07 0.00 0.69 90 1012.1
20200408103102 38 277 3.0 4.0 0.07 0.00 0.69 90 1012.1
20200408102831 38 279 0.0 4.0 0.06 0.00 0.68 90 1012.1
20200408102541 38 279 1.0 4.0 0.05 0.00 0.67 90 1012.1
20200408102356 38 280 0.0 4.0 0.05 0.00 0.67 90 1012.1
20200408102044 38 280 0.0 4.0 0.04 0.00 0.66 90 1012.9
20200408101838 38 280 1.0 4.0 0.04 0.00 0.66 90 1013.0
20200408101528 38 280 0.0 4.0 0.04 0.00 0.65 90 1012.9
20200408101336 38 280 0.0 4.0 0.04 0.00 0.65 89 1012.8
20200408101043 38 280 0.0 3.0 0.03 0.00 0.64 89 1012.8
20200408100832 38 280 1.0 3.0 0.04 0.00 0.64 89 1012.8
20200408100608 38 280 0.0 2.0 0.03 0.00 0.63 89 1012.8
20200408100526 38 280 0.0 2.0 0.03 0.00 0.63 89 1012.8
20200408100356 38 280 0.0 1.0 0.03 0.00 0.63 89 1012.8
20200408100127 38 280 0.0 1.0 0.04 0.00 0.63 89 1012.7
20200408100044 38 280 0.0 1.0 0.04 0.00 0.63 89 1012.7
20200408095920 38 280 0.0 1.0 0.04 0.00 0.63 89 1012.7
20200408095838 38 280 0.0 1.0 0.04 0.00 0.63 89 1012.7
20200408095549 38 280 1.0 1.0 0.04 0.00 0.63 89 1012.6
20200408095359 38 280 0.0 1.0 0.03 0.00 0.62 89 1012.7
20200408095031 38 280 0.0 1.0 0.03 0.00 0.62 89 1012.8
20200408094840 38 280 0.0 1.0 0.03 0.00 0.62 89 1012.8
20200408094534 38 280 0.0 1.0 0.03 0.00 0.62 89 1012.7
20200408094344 38 280 0.0 0.0 0.04 0.00 0.62 89 1012.6
20200408094027 38 280 0.0 0.0 0.04 0.00 0.62 89 1012.7
20200408093902 38 280 0.0 0.0 0.04 0.00 0.62 89 1012.7
20200408093551 38 280 0.0 0.0 0.04 0.00 0.62 89 1012.8
20200408093341 38 280 0.0 0.0 0.04 0.00 0.62 89 1012.8
20200408093035 38 280 0.0 0.0 0.04 0.00 0.62 89 1012.8
20200408092844 38 280 0.0 0.0 0.04 0.00 0.62 89 1013.0
20200408092536 38 280 0.0 0.0 0.04 0.00 0.62 89 1013.2
20200408092326 38 280 0.0 0.0 0.04 0.00 0.62 89 1013.2
20200408091331 38 280 0.0 0.0 0.03 0.00 0.61 89 1013.4
20200408091035 38 280 0.0 0.0 0.03 0.00 0.61 89 1013.5
20200408090844 38 280 0.0 1.0 0.03 0.00 0.61 89 1013.6
20200408090620 38 280 0.0 5.0 0.03 0.00 0.60 89 1013.5
20200408090538 38 280 0.0 5.0 0.03 0.00 0.60 89 1013.5
20200408090327 38 280 0.0 5.0 0.03 0.00 0.60 89 1013.6
20200408090039 38 280 0.0 5.0 0.02 0.00 0.59 89 1013.6
20200408085850 38 280 1.0 5.0 0.02 0.00 0.59 89 1013.8
20200408085539 38 280 2.0 3.0 0.02 0.00 0.59 89 1013.8
20200408085332 38 280 1.0 3.0 0.02 0.00 0.59 89 1013.8
20200408085043 38 280 0.0 3.0 0.02 0.00 0.59 89 1013.9
20200408084915 38 280 1.0 3.0 0.02 0.00 0.59 89 1013.9
20200408084832 38 280 1.0 3.0 0.02 0.00 0.59 89 1013.9
20200408084608 38 280 2.0 3.0 0.02 0.00 0.59 88 1013.8
20200408084336 38 280 1.0 2.0 0.01 0.00 0.58 88 1013.8
20200408084105 38 280 0.0 3.0 0.01 0.00 0.58 88 1013.9
20200408083853 38 280 0.0 3.0 0.01 0.00 0.58 88 1013.9
20200408083602 38 280 0.0 3.0 0.01 0.00 0.58 88 1013.8
20200408083335 38 280 0.0 3.0 0.01 0.00 0.58 88 1013.9
20200408083105 38 280 0.0 0.0 0.01 0.00 0.58 88 1013.9
20200408082837 38 280 0.0 0.0 0.01 0.00 0.58 88 1014.0
20200408082527 38 280 0.0 0.0 0.01 0.00 0.58 88 1014.1
20200408082419 38 280 0.0 0.0 0.01 0.00 0.58 87 1014.2
20200408082337 38 280 0.0 0.0 0.01 0.00 0.58 87 1014.2
20200408082030 38 280 0.0 0.0 0.01 0.00 0.58 87 1014.1
20200408081839 38 280 0.0 0.0 0.01 0.00 0.58 87 1014.2
20200408081616 38 280 0.0 0.0 0.02 0.00 0.58 87 1014.3
20200408081345 38 280 0.0 0.0 0.02 0.00 0.58 87 1014.3
20200408081045 38 280 0.0 0.0 0.02 0.00 0.58 87 1014.3
20200408080838 38 280 0.0 0.0 0.02 0.00 0.58 87 1014.3
20200408080527 38 280 0.0 0.0 0.01 0.00 0.57 87 1014.5
20200408080359 38 280 0.0 0.0 0.01 0.00 0.57 87 1014.5
20200408080031 38 280 0.0 0.0 0.01 0.00 0.57 87 1014.6
20200408075841 38 280 0.0 0.0 0.01 0.00 0.57 87 1014.6
20200408075616 38 280 0.0 0.0 0.02 0.00 0.57 87 1014.7
20200408075534 38 280 0.0 0.0 0.02 0.00 0.57 87 1014.7
20200408075344 38 280 0.0 0.0 0.02 0.00 0.57 87 1014.7
20200408075033 38 280 0.0 0.0 0.02 0.00 0.57 87 1014.8
20200408074910 38 280 0.0 0.0 0.02 0.00 0.57 87 1014.7
20200408074828 38 280 0.0 0.0 0.02 0.00 0.57 87 1014.7
20200408074537 38 280 0.0 0.0 0.03 0.00 0.57 87 1014.8
20200408074331 38 280 0.0 0.0 0.03 0.00 0.57 87 1014.8
20200408074055 38 280 0.0 0.0 0.03 0.00 0.57 87 1014.9
20200408073927 38 280 0.0 0.0 0.03 0.00 0.57 87 1014.9
20200408073844 38 280 0.0 0.0 0.03 0.00 0.57 87 1014.9
20200408073538 38 280 0.0 0.0 0.03 0.00 0.57 87 1014.8
20200408073328 38 280 0.0 0.0 0.03 0.00 0.57 87 1014.9
20200408073101 38 280 0.0 0.0 0.04 0.00 0.57 87 1014.9
20200408072830 38 280 0.0 0.0 0.04 0.00 0.57 87 1014.9
20200408072622 38 280 0.0 0.0 0.04 0.00 0.57 87 1015.0
20200408072334 38 280 0.0 0.0 0.04 0.00 0.57 86 1015.0
20200408072043 38 280 0.0 0.0 0.04 0.00 0.57 86 1015.0
20200408071854 38 280 0.0 0.0 0.04 0.00 0.57 86 1015.0
20200408071539 38 280 0.0 0.0 0.03 0.00 0.56 86 1015.1
20200408071357 38 280 0.0 0.0 0.03 0.00 0.56 86 1015.2
20200408071103 38 280 0.0 0.0 0.03 0.00 0.56 86 1015.2
20200408070831 38 280 0.0 0.0 0.03 0.00 0.56 86 1015.1
20200408070541 38 280 0.0 0.0 0.03 0.00 0.56 86 1015.0
20200408070334 38 280 0.0 0.0 0.03 0.00 0.56 86 1015.0
20200408070044 38 280 0.0 0.0 0.03 0.00 0.56 86 1015.1
20200408065855 38 280 0.0 0.0 0.03 0.00 0.56 86 1015.1
20200408065527 39 280 0.0 3.0 0.02 0.00 0.55 86 1015.2
20200408065337 39 280 0.0 3.0 0.02 0.00 0.55 86 1015.1
20200408065031 39 280 0.0 3.0 0.02 0.00 0.55 86 1015.0
20200408064923 39 280 1.0 3.0 0.02 0.00 0.55 86 1015.1
20200408064841 39 280 1.0 3.0 0.02 0.00 0.55 86 1015.1
20200408064535 39 280 0.0 0.0 0.01 0.00 0.54 86 1015.3
20200408064325 39 280 0.0 0.0 0.01 0.00 0.54 86 1015.2
20200408064050 39 280 0.0 0.0 0.01 0.00 0.54 85 1015.3
20200408063843 39 280 0.0 1.0 0.01 0.00 0.54 85 1015.2
20200408063553 39 280 0.0 1.0 0.01 0.00 0.54 85 1015.3
20200408063343 39 280 0.0 1.0 0.01 0.00 0.54 85 1015.3
20200408063119 38 280 0.0 1.0 0.00 0.00 0.53 85 1015.3
20200408063036 38 280 0.0 1.0 0.00 0.00 0.53 85 1015.3
20200408062825 38 280 0.0 1.0 0.00 0.00 0.53 85 1015.4
20200408062539 38 280 0.0 1.0 0.00 0.00 0.53 85 1015.3
20200408062329 38 280 0.0 1.0 0.00 0.00 0.53 85 1015.2
20200408062039 39 280 0.0 1.0 0.00 0.00 0.53 85 1015.1
20200408061832 39 280 0.0 1.0 0.00 0.00 0.53 85 1015.1
20200408061542 39 280 0.0 4.0 0.00 0.00 0.53 85 1015.2
20200408061332 39 280 0.0 4.0 0.00 0.00 0.53 85 1015.2
20200408061039 39 280 0.0 5.0 0.00 0.00 0.53 85 1015.2
20200408060829 39 280 2.0 7.0 0.00 0.00 0.53 85 1015.2
20200408060603 39 280 1.0 7.0 0.00 0.00 0.53 85 1015.3
20200408060332 39 280 2.0 7.0 0.00 0.00 0.53 85 1015.3
20200408060041 39 281 2.0 7.0 0.00 0.00 0.53 86 1015.3
20200408055835 39 281 0.0 7.0 0.00 0.00 0.53 86 1015.4
20200408055604 39 281 4.0 7.0 0.00 0.00 0.53 86 1015.3
20200408055337 39 202 1.0 7.0 0.00 0.00 0.53 87 1015.4
20200408055027 39 229 0.0 9.0 0.00 0.00 0.53 87 1015.4
20200408054837 39 229 0.0 9.0 0.00 0.00 0.53 87 1015.5
20200408054613 39 229 0.0 9.0 0.00 0.00 0.53 87 1015.6
20200408054530 39 229 0.0 9.0 0.00 0.00 0.53 87 1015.6
20200408054400 39 229 4.0 9.0 0.00 0.00 0.53 87 1015.6
20200408054027 39 214 0.0 6.0 0.00 0.00 0.53 87 1015.7
20200408053857 39 214 3.0 6.0 0.00 0.00 0.53 88 1015.7
20200408053526 39 213 3.0 6.0 0.00 0.00 0.53 88 1015.7
20200408053420 39 184 0.0 5.0 0.00 0.00 0.53 88 1015.8
20200408053028 40 229 2.0 4.0 0.00 0.00 0.53 88 1015.6
20200408052837 40 229 1.0 4.0 0.00 0.00 0.53 88 1015.6
20200408052531 40 259 0.0 4.0 0.00 0.00 0.53 88 1015.5
20200408052340 40 261 2.0 4.0 0.00 0.00 0.53 88 1015.6